Location: Gallinara
(44.0333°N, 8.2333°E)
Time: 11:30:27
(UTC+00:00)

Cosmos 1459 Rocket - Pass Details

Date: 25 September 2020
Orbit: 936 x 1001 km, 83.0° (Epoch: 24 October)

Event Time Altitude Azimuth Distance (km) Brightness Sun altitude
Rises 03:10:22 0° 354° (N) 3,623 7.2 -23.2°
Reaches altitude 10° 03:12:55 10° 358° (N) 2,668 6.5 -22.8°
Maximum altitude 03:18:57 64° 80° (E) 1,032 4.3 -21.8°
Drops below altitude 10° 03:24:55 10° 161° (SSE) 2,640 6.3 -20.8°
Sets 03:27:25 0° 165° (SSE) 3,582 6.9 -20.4°
